CW3138 Weather Reports


Display with metric or nautical units.
time (UTC)temp
F
wind
direction
speed
MPH
gust
MPH
rain 1hr
in
rain 24hr
in
rain mn
in
humidity
%
barometer
mb
20260906120029 70 289 0.0 5.0 0.00 0.03 0.00 99 1009.0
20260906114528 70 258 0.0 1.0 0.00 0.63 0.00 100 1008.8
20260906113027 70 258 0.0 4.0 0.00 0.63 0.00 100 1008.5
20260906111527 70 241 0.0 0.0 0.00 0.63 0.00 100 1008.5
20260906110024 70 241 0.0 3.0 0.00 0.63 0.00 100 1008.0
20260906104525 70 240 2.0 4.0 0.00 0.63 0.00 100 1007.9
20260906103021 70 254 1.0 4.0 0.00 0.63 0.00 100 1007.9
20260906101521 70 232 0.0 0.0 0.00 0.63 0.00 100 1007.7
20260906100021 69 232 0.0 0.0 0.00 0.63 0.00 100 1007.7
20260906094522 69 232 0.0 4.0 0.00 0.63 0.00 100 1007.7
20260906093030 69 232 0.0 0.0 0.00 0.63 0.00 100 1007.7
20260906091517 69 232 0.0 0.0 0.00 0.63 0.00 100 1007.8
20260906090018 68 232 0.0 0.0 0.00 0.63 0.00 100 1007.8
20260906084517 68 232 0.0 0.0 0.00 0.63 0.00 100 1007.7
20260906083019 68 232 0.0 0.0 0.00 0.63 0.00 100 1007.7
20260906081520 68 232 0.0 0.0 0.00 0.63 0.00 100 1007.6
20260906080015 68 232 0.0 0.0 0.00 0.63 0.00 100 1007.6
20260906074513 68 232 0.0 0.0 0.00 0.63 0.00 100 1007.8
20260906073011 69 232 0.0 0.0 0.00 0.63 0.00 100 1007.5
20260906071510 69 232 0.0 0.0 0.00 0.63 0.00 100 1007.5
20260906070009 69 232 0.0 0.0 0.00 0.63 0.00 100 1007.6
20260906064514 69 232 0.0 0.0 0.00 0.63 0.00 100 1007.8
20260906063008 69 232 0.0 0.0 0.00 0.63 0.00 100 1007.6
20260906061507 70 232 0.0 0.0 0.00 0.63 0.00 100 1007.6
20260906060005 70 232 0.0 0.0 0.00 0.63 0.00 100 1007.7
20260906054503 70 232 0.0 0.0 0.00 0.63 0.00 100 1007.9
20260906053006 70 232 0.0 0.0 0.00 0.63 0.00 99 1007.9
20260906051602 70 232 0.0 0.0 0.00 0.63 0.00 99 1007.6
20260906050059 70 232 0.0 0.0 0.00 0.63 0.00 99 1007.5
20260906044558 70 232 0.0 0.0 0.00 0.63 0.00 99 1007.4
20260906043058 70 232 0.0 0.0 0.00 0.63 0.00 99 1007.3
20260906041556 71 232 0.0 0.0 0.00 0.63 0.00 99 1007.3
20260906040054 71 232 0.0 0.0 0.00 0.63 0.00 99 1007.5
20260906034553 71 232 0.0 0.0 0.00 0.63 0.63 99 1007.5
20260906033059 71 277 0.0 4.0 0.00 0.63 0.63 99 1007.6
20260906031557 71 227 0.0 0.0 0.00 0.63 0.63 99 1007.7
20260906030054 71 227 0.0 0.0 0.00 0.63 0.63 98 1007.8
20260906024552 71 227 0.0 0.0 0.00 0.63 0.63 98 1007.9
20260906023052 72 227 0.0 0.0 0.00 0.63 0.63 98 1007.9
20260906021557 72 227 0.0 0.0 0.00 0.63 0.63 98 1007.9
20260906020053 72 227 0.0 0.0 0.00 0.63 0.63 98 1007.8
20260906014552 73 227 0.0 0.0 0.00 0.63 0.63 98 1007.5
20260906013050 73 227 0.0 0.0 0.00 0.63 0.63 97 1007.3
20260906011602 73 227 0.0 0.0 0.00 0.63 0.63 97 1006.9
20260906010049 74 227 0.0 0.0 0.00 0.63 0.63 96 1006.8
20260906004548 74 227 0.0 0.0 0.00 0.63 0.63 96 1006.8
20260906003048 75 227 0.0 0.0 0.00 0.63 0.63 95 1006.7
20260906001551 75 227 0.0 0.0 0.00 0.63 0.63 94 1006.7
20260906000047 76 227 0.0 0.0 0.00 0.63 0.63 93 1006.8
20260905234547 77 227 0.0 0.0 0.00 0.63 0.63 91 1006.8
20260905233104 78 227 0.0 0.0 0.00 0.63 0.63 91 1006.8
20260905231552 79 227 0.0 0.0 0.00 0.63 0.63 87 1006.7
20260905230047 80 227 0.0 0.0 0.00 0.63 0.63 86 1006.9
20260905224605 81 227 0.0 0.0 0.00 0.63 0.63 84 1006.7
20260905223044 82 227 0.0 0.0 0.00 0.63 0.63 85 1006.8
20260905221544 82 227 0.0 0.0 0.00 0.63 0.63 86 1006.8
20260905220048 82 227 0.0 0.0 0.00 0.63 0.63 85 1007.0
20260905214542 82 227 0.0 0.0 0.00 0.63 0.63 83 1006.8
20260905213043 82 227 0.0 2.0 0.00 0.63 0.63 77 1006.8
20260905211541 84 240 3.0 6.0 0.00 0.63 0.63 72 1006.6
20260905210039 84 211 1.0 5.0 0.00 0.63 0.63 72 1006.5
20260905204539 84 239 3.0 6.0 0.00 0.63 0.63 76 1006.7
20260905203040 84 228 1.0 4.0 0.00 0.63 0.63 71 1006.8
20260905201535 83 28 0.0 0.0 0.00 0.63 0.63 75 1006.8
20260905200034 83 327 0.0 3.0 0.00 0.63 0.63 74 1007.2
20260905194533 83 101 0.0 5.0 0.00 0.77 0.63 72 1007.3
20260905193031 82 101 4.0 7.0 0.00 0.77 0.63 74 1007.3
20260905191529 82 82 0.0 4.0 0.00 0.77 0.63 78 1007.7
20260905190032 82 39 0.0 3.0 0.00 0.77 0.63 77 1007.9
20260905184527 82 13 1.0 4.0 0.00 0.78 0.63 78 1007.9
20260905183024 82 86 2.0 7.0 0.00 0.78 0.63 79 1008.1
20260905181524 81 27 2.0 7.0 0.00 0.78 0.63 79 1008.2
20260905180021 80 108 0.0 6.0 0.00 0.78 0.63 80 1008.3
20260905174531 80 96 1.0 8.0 0.00 0.78 0.63 79 1008.3
20260905173026 80 143 0.0 5.0 0.00 0.78 0.63 82 1008.4
20260905171515 79 82 3.0 7.0 0.00 0.78 0.63 83 1008.4
20260905170013 78 89 4.0 9.0 0.00 0.78 0.63 83 1008.5
20260905164512 78 81 6.0 11.0 0.00 0.78 0.63 85 1008.6
20260905163012 77 160 5.0 10.0 0.00 0.78 0.63 88 1008.9
20260905161507 76 9 0.0 8.0 0.00 0.78 0.63 87 1009.4
20260905160004 74 355 1.0 3.0 0.00 0.78 0.63 94 1009.4
20260905154501 73 259 0.0 0.0 0.00 0.78 0.63 97 1009.4
20260905153101 73 259 0.0 0.0 0.00 0.78 0.63 99 1009.3
20260905151559 73 250 1.0 4.0 0.00 0.78 0.63 100 1009.4
20260905150059 72 202 0.0 1.0 0.00 0.78 0.63 100 1008.5
20260905144559 72 287 2.0 6.0 0.00 0.78 0.63 100 1008.0
20260905143058 71 182 0.0 2.0 0.00 0.78 0.63 100 1008.3
20260905141623 71 82 3.0 6.0 0.00 0.78 0.63 100 1007.8
20260905140057 71 178 0.0 6.0 0.01 0.78 0.63 100 1008.7
20260905134556 71 103 1.0 5.0 0.01 0.78 0.63 100 1008.8
20260905133055 71 84 0.0 5.0 0.02 0.78 0.63 100 1008.8
20260905131608 70 138 0.0 0.0 0.02 0.78 0.63 100 1009.9
20260905130055 70 138 0.0 0.0 0.02 0.77 0.62 100 1009.4
20260905124553 70 138 0.0 3.0 0.40 0.77 0.62 99 1009.8
20260905123059 70 254 0.0 2.0 0.53 0.76 0.61 99 1009.4
20260905121551 70 248 3.0 5.0 0.53 0.76 0.61 98 1009.2